Time,TemperatureF,DewpointF,PressureIn,WindDirection,WindDirectionDegrees,WindSpeedMPH,WindSpeedGustMPH,Humidity,HourlyPrecipIn,Conditions,Clouds,dailyrainin,SoftwareType,DateUTC
2013-01-03 00:00:00,63.2,62.3,30.05,SW,215,0.0,0.0,97,0.00,,,0.00,VWS V12.08,2013-01-03 05:00:00,
2013-01-03 00:05:00,63.3,62.4,30.04,SW,215,0.0,0.0,97,0.00,,,0.00,VWS V12.08,2013-01-03 05:05:00,
2013-01-03 00:10:00,63.4,62.5,30.04,SW,215,0.0,0.0,97,0.00,,,0.00,VWS V12.08,2013-01-03 05:10:00,
2013-01-03 00:15:00,63.4,62.5,30.04,SW,215,0.0,0.0,97,0.00,,,0.00,VWS V12.08,2013-01-03 05:15:00,
2013-01-03 00:20:00,63.6,62.7,30.04,SW,215,0.0,0.0,97,0.00,,,0.00,VWS V12.08,2013-01-03 05:20:00,
2013-01-03 00:25:00,63.7,62.8,30.04,SW,215,0.0,0.0,97,0.00,,,0.00,VWS V12.08,2013-01-03 05:25:00,
2013-01-03 00:30:00,63.9,63.0,30.04,SW,215,0.0,0.0,97,0.00,,,0.00,VWS V12.08,2013-01-03 05:30:00,
2013-01-03 00:35:00,64.0,63.4,30.04,SW,215,0.0,0.0,98,0.00,,,0.00,VWS V12.08,2013-01-03 05:35:00,
2013-01-03 00:40:00,64.0,63.4,30.04,SW,215,0.0,0.0,98,0.00,,,0.00,VWS V12.08,2013-01-03 05:40:00,
2013-01-03 00:45:00,63.9,63.3,30.04,SW,215,0.0,0.0,98,0.00,,,0.00,VWS V12.08,2013-01-03 05:45:00,
2013-01-03 00:50:00,64.0,63.4,30.04,SW,215,0.0,0.0,98,0.00,,,0.00,VWS V12.08,2013-01-03 05:50:00,
2013-01-03 00:55:00,64.0,63.4,30.04,SW,215,0.0,0.0,98,0.00,,,0.00,VWS V12.08,2013-01-03 05:55:00,
2013-01-03 01:00:00,63.9,63.3,30.04,SW,215,0.0,0.0,98,0.00,,,0.00,VWS V12.08,2013-01-03 06:00:00,
2013-01-03 01:10:00,63.6,63.0,30.04,SW,215,0.0,0.0,98,0.00,,,0.00,VWS V12.08,2013-01-03 06:10:00,
2013-01-03 01:15:00,63.6,62.7,30.04,SW,219,0.0,0.0,97,0.00,,,0.00,VWS V12.08,2013-01-03 06:15:00,
2013-01-03 01:20:00,63.8,62.9,30.04,SW,219,0.0,0.0,97,0.00,,,0.00,VWS V12.08,2013-01-03 06:20:00,
2013-01-03 01:25:00,63.9,63.0,30.04,WSW,248,0.0,0.0,97,0.00,,,0.00,VWS V12.08,2013-01-03 06:25:00,
2013-01-03 01:30:00,64.0,63.4,30.04,North,9,0.0,0.0,98,0.00,,,0.00,VWS V12.08,2013-01-03 06:30:00,
2013-01-03 01:35:00,64.1,63.5,30.04,North,9,0.0,0.0,98,0.00,,,0.00,VWS V12.08,2013-01-03 06:35:00,
2013-01-03 01:40:00,64.0,63.4,30.04,North,9,0.0,0.0,98,0.00,,,0.00,VWS V12.08,2013-01-03 06:40:00,
2013-01-03 01:45:00,63.9,63.3,30.04,North,9,0.0,0.0,98,0.00,,,0.00,VWS V12.08,2013-01-03 06:45:00,
2013-01-03 01:55:00,63.5,62.9,30.04,North,9,0.0,0.0,98,0.00,,,0.00,VWS V12.08,2013-01-03 06:55:00,
2013-01-03 02:00:00,63.4,62.8,30.04,North,9,0.0,0.0,98,0.00,,,0.00,VWS V12.08,2013-01-03 07:00:00,
2013-01-03 02:05:00,63.3,62.7,30.05,North,9,0.0,0.0,98,0.00,,,0.00,VWS V12.08,2013-01-03 07:05:00,
2013-01-03 02:15:00,63.2,62.3,30.04,North,9,0.0,0.0,97,0.00,,,0.00,VWS V12.08,2013-01-03 07:15:00,
2013-01-03 02:25:00,63.0,62.1,30.04,North,9,0.0,0.0,97,0.00,,,0.00,VWS V12.08,2013-01-03 07:25:00,
2013-01-03 02:30:00,62.9,62.3,30.04,North,9,0.0,0.0,98,0.00,,,0.00,VWS V12.08,2013-01-03 07:30:00,
2013-01-03 02:35:00,62.7,62.1,30.04,North,9,0.0,0.0,98,0.00,,,0.00,VWS V12.08,2013-01-03 07:35:00,
2013-01-03 02:40:00,62.7,62.1,30.04,North,9,0.0,0.0,98,0.00,,,0.00,VWS V12.08,2013-01-03 07:40:00,
2013-01-03 02:50:00,62.5,61.6,30.03,North,9,0.0,0.0,97,0.00,,,0.00,VWS V12.08,2013-01-03 07:50:00,
2013-01-03 02:55:00,62.4,61.8,30.03,North,9,0.0,0.0,98,0.00,,,0.00,VWS V12.08,2013-01-03 07:55:00,
2013-01-03 03:00:00,62.3,61.7,30.03,North,9,0.0,0.0,98,0.00,,,0.00,VWS V12.08,2013-01-03 08:00:00,
2013-01-03 03:05:00,62.1,61.5,30.03,North,9,0.0,0.0,98,0.00,,,0.00,VWS V12.08,2013-01-03 08:05:00,
2013-01-03 03:15:00,61.8,61.2,30.03,North,9,0.0,0.0,98,0.00,,,0.00,VWS V12.08,2013-01-03 08:15:00,
2013-01-03 03:25:00,61.7,61.1,30.03,North,9,0.0,0.0,98,0.00,,,0.00,VWS V12.08,2013-01-03 08:25:00,
2013-01-03 03:30:00,61.5,60.9,30.03,North,9,0.0,0.0,98,0.00,,,0.00,VWS V12.08,2013-01-03 08:30:00,
2013-01-03 03:40:00,61.3,60.4,30.03,North,9,0.0,0.0,97,0.00,,,0.00,VWS V12.08,2013-01-03 08:40:00,
2013-01-03 03:45:00,61.3,60.7,30.03,North,9,0.0,0.0,98,0.00,,,0.00,VWS V12.08,2013-01-03 08:45:00,
2013-01-03 03:50:00,61.2,60.6,30.03,North,9,0.0,0.0,98,0.00,,,0.00,VWS V12.08,2013-01-03 08:50:00,
2013-01-03 03:55:00,61.2,60.6,30.03,North,9,0.0,0.0,98,0.00,,,0.00,VWS V12.08,2013-01-03 08:55:00,
2013-01-03 04:00:00,61.1,60.5,30.03,North,9,0.0,0.0,98,0.00,,,0.00,VWS V12.08,2013-01-03 09:00:00,
2013-01-03 04:10:00,61.5,60.9,30.03,ESE,113,0.0,0.0,98,0.00,,,0.00,VWS V12.08,2013-01-03 09:10:00,
2013-01-03 04:20:00,61.8,61.2,30.03,ESE,111,0.0,0.0,98,0.00,,,0.00,VWS V12.08,2013-01-03 09:20:00,
2013-01-03 04:30:00,62.0,61.4,30.03,ESE,109,0.0,0.0,98,0.00,,,0.00,VWS V12.08,2013-01-03 09:30:00,
2013-01-03 04:35:00,62.0,61.4,30.03,ESE,105,0.0,0.0,98,0.00,,,0.00,VWS V12.08,2013-01-03 09:35:00,
2013-01-03 04:45:00,62.0,61.4,30.03,ESE,105,0.0,0.0,98,0.00,,,0.00,VWS V12.08,2013-01-03 09:45:00,
2013-01-03 04:55:00,62.0,61.4,30.03,ESE,103,0.0,0.0,98,0.00,,,0.00,VWS V12.08,2013-01-03 09:55:00,
2013-01-03 05:00:00,62.1,61.5,30.03,ESE,103,0.0,0.0,98,0.00,,,0.00,VWS V12.08,2013-01-03 10:00:00,
2013-01-03 05:10:00,62.3,61.7,30.03,East,99,0.0,0.0,98,0.00,,,0.00,VWS V12.08,2013-01-03 10:10:00,
2013-01-03 05:15:00,62.3,61.7,30.02,ESE,106,0.0,0.0,98,0.00,,,0.00,VWS V12.08,2013-01-03 10:15:00,
2013-01-03 05:25:00,62.4,61.8,30.03,East,81,0.0,0.0,98,0.00,,,0.00,VWS V12.08,2013-01-03 10:25:00,
2013-01-03 05:30:00,62.4,61.8,30.03,ENE,73,0.0,0.0,98,0.00,,,0.00,VWS V12.08,2013-01-03 10:30:00,
2013-01-03 05:40:00,62.2,61.6,30.03,ENE,78,0.0,0.0,98,0.00,,,0.00,VWS V12.08,2013-01-03 10:40:00,
2013-01-03 05:45:00,62.0,61.4,30.03,ENE,76,0.0,0.0,98,0.00,,,0.00,VWS V12.08,2013-01-03 10:45:00,
2013-01-03 05:55:00,61.7,61.1,30.04,East,81,0.0,0.0,98,0.00,,,0.00,VWS V12.08,2013-01-03 10:55:00,
2013-01-03 06:00:00,61.7,61.1,30.04,East,83,0.0,0.0,98,0.00,,,0.00,VWS V12.08,2013-01-03 11:00:00,
2013-01-03 06:10:00,61.6,61.0,30.04,East,84,0.0,0.0,98,0.00,,,0.00,VWS V12.08,2013-01-03 11:10:00,
2013-01-03 06:15:00,61.6,61.0,30.04,East,84,0.0,0.0,98,0.00,,,0.00,VWS V12.08,2013-01-03 11:15:00,
2013-01-03 06:20:00,61.5,60.9,30.04,East,88,0.0,0.0,98,0.00,,,0.00,VWS V12.08,2013-01-03 11:20:00,
2013-01-03 06:30:00,61.5,60.9,30.04,ESE,113,0.0,0.0,98,0.00,,,0.00,VWS V12.08,2013-01-03 11:30:00,
2013-01-03 06:35:00,61.4,60.8,30.05,ESE,114,0.0,0.0,98,0.00,,,0.00,VWS V12.08,2013-01-03 11:35:00,
2013-01-03 06:40:00,61.3,60.7,30.05,ESE,114,0.0,0.0,98,0.00,,,0.00,VWS V12.08,2013-01-03 11:40:00,
2013-01-03 06:45:00,61.2,60.6,30.05,ESE,114,0.0,0.0,98,0.00,,,0.00,VWS V12.08,2013-01-03 11:45:00,
2013-01-03 06:55:00,61.1,60.5,30.05,ESE,113,0.0,0.0,98,0.00,,,0.00,VWS V12.08,2013-01-03 11:55:00,
2013-01-03 07:00:00,61.1,60.5,30.06,ESE,113,0.0,0.0,98,0.00,,,0.00,VWS V12.08,2013-01-03 12:00:00,
2013-01-03 07:10:00,61.1,60.5,30.06,ESE,113,0.0,0.0,98,0.00,,,0.00,VWS V12.08,2013-01-03 12:10:00,
2013-01-03 07:15:00,61.1,60.5,30.06,ESE,113,0.0,0.0,98,0.00,,,0.00,VWS V12.08,2013-01-03 12:15:00,
2013-01-03 07:25:00,60.9,60.3,30.06,ESE,113,0.0,0.0,98,0.00,,,0.00,VWS V12.08,2013-01-03 12:25:00,
2013-01-03 07:30:00,60.9,60.3,30.07,ESE,113,0.0,0.0,98,0.00,,,0.00,VWS V12.08,2013-01-03 12:30:00,
2013-01-03 07:40:00,61.0,60.4,30.07,ESE,113,0.0,0.0,98,0.00,,,0.00,VWS V12.08,2013-01-03 12:40:00,
2013-01-03 07:45:00,61.1,60.5,30.07,ESE,113,0.0,0.0,98,0.00,,,0.00,VWS V12.08,2013-01-03 12:45:00,
2013-01-03 07:55:00,61.3,60.7,30.07,ESE,113,0.0,0.0,98,0.00,,,0.00,VWS V12.08,2013-01-03 12:55:00,
2013-01-03 08:00:00,61.4,60.8,30.07,ESE,113,0.0,0.0,98,0.00,,,0.00,VWS V12.08,2013-01-03 13:00:00,
2013-01-03 08:10:00,61.7,61.1,30.07,ESE,113,0.0,0.0,98,0.00,,,0.00,VWS V12.08,2013-01-03 13:10:00,
2013-01-03 08:15:00,61.8,61.2,30.08,ESE,113,0.0,0.0,98,0.00,,,0.00,VWS V12.08,2013-01-03 13:15:00,
2013-01-03 08:25:00,62.2,61.6,30.08,ESE,113,0.0,0.0,98,0.00,,,0.00,VWS V12.08,2013-01-03 13:25:00,
2013-01-03 08:30:00,62.4,61.8,30.08,ESE,113,0.0,0.0,98,0.00,,,0.00,VWS V12.08,2013-01-03 13:30:00,
2013-01-03 08:40:00,63.2,62.6,30.08,ESE,113,0.0,0.0,98,0.00,,,0.00,VWS V12.08,2013-01-03 13:40:00,
2013-01-03 08:45:00,63.6,63.0,30.08,ESE,113,0.0,0.0,98,0.00,,,0.00,VWS V12.08,2013-01-03 13:45:00,
2013-01-03 08:55:00,64.3,63.7,30.08,ESE,113,0.0,0.0,98,0.00,,,0.00,VWS V12.08,2013-01-03 13:55:00,
2013-01-03 09:00:00,64.7,64.1,30.08,ESE,113,0.0,0.0,98,0.00,,,0.00,VWS V12.08,2013-01-03 14:00:00,
2013-01-03 09:10:00,65.4,64.8,30.09,ESE,113,0.0,0.0,98,0.00,,,0.00,VWS V12.08,2013-01-03 14:10:00,
2013-01-03 09:15:00,65.6,65.0,30.09,ESE,115,0.0,0.0,98,0.00,,,0.00,VWS V12.08,2013-01-03 14:15:00,
2013-01-03 09:25:00,65.9,65.3,30.09,ESE,109,0.0,0.0,98,0.00,,,0.00,VWS V12.08,2013-01-03 14:25:00,
2013-01-03 09:30:00,66.3,65.7,30.09,ESE,103,0.0,0.0,98,0.00,,,0.00,VWS V12.08,2013-01-03 14:30:00,
2013-01-03 09:40:00,67.6,67.0,30.09,ESE,116,0.0,0.0,98,0.00,,,0.00,VWS V12.08,2013-01-03 14:40:00,
2013-01-03 09:45:00,68.2,67.6,30.09,ESE,117,0.0,0.0,98,0.00,,,0.00,VWS V12.08,2013-01-03 14:45:00,
2013-01-03 09:50:00,68.5,67.6,30.09,ESE,121,0.0,0.0,97,0.00,,SCT002,0.00,VWS V12.08,2013-01-03 14:50:00,
2013-01-03 09:55:00,69.2,68.0,30.09,ESE,107,0.0,0.0,96,0.00,,SCT002,0.00,VWS V12.08,2013-01-03 14:55:00,
2013-01-03 10:00:00,70.0,67.9,30.09,ESE,109,0.0,0.0,93,0.00,,SCT002,0.00,VWS V12.08,2013-01-03 15:00:00,
2013-01-03 10:10:00,71.2,67.8,30.09,ESE,123,0.0,0.0,89,0.00,,SCT002,0.00,VWS V12.08,2013-01-03 15:10:00,
2013-01-03 10:15:00,72.1,68.3,30.09,ESE,117,0.0,0.0,88,0.00,,SCT002,0.00,VWS V12.08,2013-01-03 15:15:00,
2013-01-03 10:20:00,72.4,68.0,30.09,ESE,123,0.0,0.0,86,0.00,,SCT002,0.00,VWS V12.08,2013-01-03 15:20:00,
2013-01-03 10:25:00,72.9,68.5,30.09,ESE,107,0.0,0.0,86,0.00,,SCT002,0.00,VWS V12.08,2013-01-03 15:25:00,
2013-01-03 10:30:00,73.5,68.7,30.09,ESE,122,0.0,0.0,85,0.00,,SCT002,0.00,VWS V12.08,2013-01-03 15:30:00,
2013-01-03 10:35:00,73.8,68.7,30.08,SE,124,0.0,0.0,84,0.00,,SCT002,0.00,VWS V12.08,2013-01-03 15:35:00,
2013-01-03 10:45:00,75.2,70.0,30.08,SE,128,0.0,0.0,84,0.00,,SCT002,0.00,VWS V12.08,2013-01-03 15:45:00,
2013-01-03 10:50:00,75.1,69.2,30.09,SE,128,0.0,0.0,82,0.00,,CLR,0.00,VWS V12.08,2013-01-03 15:50:00,
2013-01-03 11:00:00,75.8,69.6,30.08,ESE,105,0.0,0.0,81,0.00,,CLR,0.00,VWS V12.08,2013-01-03 16:00:00,
2013-01-03 11:05:00,76.4,70.1,30.08,ESE,117,0.0,6.0,81,0.00,,CLR,0.00,VWS V12.08,2013-01-03 16:05:00,
2013-01-03 11:15:00,76.5,70.2,30.08,ESE,111,0.0,3.0,81,0.00,,CLR,0.00,VWS V12.08,2013-01-03 16:15:00,
2013-01-03 11:20:00,76.5,69.9,30.07,SSE,159,0.0,9.0,80,0.00,,CLR,0.00,VWS V12.08,2013-01-03 16:20:00,
2013-01-03 11:25:00,77.4,70.4,30.07,SSE,150,0.0,4.0,79,0.00,,CLR,0.00,VWS V12.08,2013-01-03 16:25:00,
2013-01-03 11:30:00,77.1,70.1,30.07,South,176,0.0,6.0,79,0.00,,CLR,0.00,VWS V12.08,2013-01-03 16:30:00,
2013-01-03 11:40:00,77.9,70.5,30.07,South,181,2.0,5.0,78,0.00,,CLR,0.00,VWS V12.08,2013-01-03 16:40:00,
2013-01-03 11:45:00,77.9,70.5,30.07,South,169,4.0,6.0,78,0.00,,CLR,0.00,VWS V12.08,2013-01-03 16:45:00,
2013-01-03 11:55:00,77.8,70.8,30.06,South,183,0.0,10.0,79,0.00,,CLR,0.00,VWS V12.08,2013-01-03 16:55:00,
2013-01-03 12:00:00,78.1,70.7,30.06,SSE,158,6.0,11.0,78,0.00,,CLR,0.00,VWS V12.08,2013-01-03 17:00:00,
2013-01-03 12:10:00,78.5,70.7,30.05,SSE,161,0.0,9.0,77,0.00,,CLR,0.00,VWS V12.08,2013-01-03 17:10:00,
2013-01-03 12:15:00,78.2,70.8,30.05,SSE,148,0.0,9.0,78,0.00,,CLR,0.00,VWS V12.08,2013-01-03 17:15:00,
2013-01-03 12:25:00,78.4,71.0,30.04,SSE,165,4.0,9.0,78,0.00,,CLR,0.00,VWS V12.08,2013-01-03 17:25:00,
2013-01-03 12:30:00,78.6,70.8,30.03,SSE,163,2.0,7.0,77,0.00,,CLR,0.00,VWS V12.08,2013-01-03 17:30:00,
2013-01-03 12:40:00,78.3,70.5,30.03,SSE,158,4.0,10.0,77,0.00,,CLR,0.00,VWS V12.08,2013-01-03 17:40:00,
2013-01-03 12:45:00,78.1,70.3,30.03,SSE,165,6.0,14.0,77,0.00,,CLR,0.00,VWS V12.08,2013-01-03 17:45:00,
2013-01-03 12:55:00,78.7,71.3,30.03,South,176,3.0,10.0,78,0.00,,SCT020,0.00,VWS V12.08,2013-01-03 17:55:00,
2013-01-03 13:00:00,78.5,70.7,30.02,SSW,200,4.0,11.0,77,0.00,,SCT020,0.00,VWS V12.08,2013-01-03 18:00:00,
2013-01-03 13:10:00,78.5,70.3,30.02,SE,136,3.0,13.0,76,0.00,,SCT020,0.00,VWS V12.08,2013-01-03 18:10:00,
2013-01-03 13:15:00,78.7,70.1,30.02,SSW,202,2.0,15.0,75,0.00,,SCT020,0.00,VWS V12.08,2013-01-03 18:15:00,
2013-01-03 13:25:00,78.2,70.0,30.02,SSW,192,0.0,12.0,76,0.00,,SCT020,0.00,VWS V12.08,2013-01-03 18:25:00,
2013-01-03 13:30:00,78.4,70.2,30.02,SSW,200,5.0,12.0,76,0.00,,SCT020,0.00,VWS V12.08,2013-01-03 18:30:00,
2013-01-03 13:40:00,78.6,71.2,30.02,SSW,195,0.0,11.0,78,0.00,,SCT020,0.00,VWS V12.08,2013-01-03 18:40:00,
2013-01-03 13:45:00,78.9,70.7,30.02,SSW,192,7.0,10.0,76,0.00,,SCT020,0.00,VWS V12.08,2013-01-03 18:45:00,
2013-01-03 13:55:00,78.0,70.2,30.02,SW,216,9.0,9.0,77,0.00,,FEW035,0.00,VWS V12.08,2013-01-03 18:55:00,
2013-01-03 14:00:00,77.6,69.4,30.02,SSW,199,2.0,10.0,76,0.00,,FEW035,0.00,VWS V12.08,2013-01-03 19:00:00,
2013-01-03 14:10:00,78.5,70.3,30.02,SSE,168,2.0,7.0,76,0.00,,FEW035,0.00,VWS V12.08,2013-01-03 19:10:00,
2013-01-03 14:15:00,78.1,69.9,30.02,South,183,0.0,9.0,76,0.00,,FEW035,0.00,VWS V12.08,2013-01-03 19:15:00,
2013-01-03 15:00:00,78.0,69.8,30.02,SSW,199,0.0,8.0,76,0.00,,SCT038,0.00,VWS V12.08,2013-01-03 20:00:00,
2013-01-03 15:05:00,78.0,70.2,30.01,SW,229,0.0,9.0,77,0.00,,SCT038,0.00,VWS V12.08,2013-01-03 20:05:00,
2013-01-03 15:10:00,77.9,69.7,30.01,South,175,0.0,8.0,76,0.00,,SCT038,0.00,VWS V12.08,2013-01-03 20:10:00,
2013-01-03 15:15:00,77.9,69.7,30.02,South,173,3.0,8.0,76,0.00,,SCT038,0.00,VWS V12.08,2013-01-03 20:15:00,
2013-01-03 15:20:00,77.8,70.0,30.02,SSW,196,0.0,9.0,77,0.00,,SCT038,0.00,VWS V12.08,2013-01-03 20:20:00,
2013-01-03 15:25:00,77.9,69.7,30.02,SSW,207,0.0,6.0,76,0.00,,SCT038,0.00,VWS V12.08,2013-01-03 20:25:00,
2013-01-03 15:30:00,78.4,70.2,30.02,SSW,192,0.0,5.0,76,0.00,,SCT038,0.00,VWS V12.08,2013-01-03 20:30:00,
2013-01-03 15:35:00,78.5,69.9,30.02,SSW,206,1.0,5.0,75,0.00,,SCT038,0.00,VWS V12.08,2013-01-03 20:35:00,
2013-01-03 15:45:00,77.3,68.8,30.02,South,175,0.0,10.0,75,0.00,,SCT038,0.00,VWS V12.08,2013-01-03 20:45:00,
2013-01-03 15:55:00,77.0,68.9,30.02,SW,216,0.0,9.0,76,0.00,,CLR,0.00,VWS V12.08,2013-01-03 20:55:00,
2013-01-03 16:00:00,77.3,69.5,30.03,SW,215,0.0,4.0,77,0.00,,CLR,0.00,VWS V12.08,2013-01-03 21:00:00,
2013-01-03 16:10:00,77.5,69.7,30.03,South,186,0.0,4.0,77,0.00,,CLR,0.00,VWS V12.08,2013-01-03 21:10:00,
2013-01-03 16:15:00,77.1,69.3,30.03,SSE,161,4.0,8.0,77,0.00,,CLR,0.00,VWS V12.08,2013-01-03 21:15:00,
2013-01-03 16:25:00,76.9,69.9,30.03,SSE,161,0.0,7.0,79,0.00,,CLR,0.00,VWS V12.08,2013-01-03 21:25:00,
2013-01-03 16:30:00,76.5,69.5,30.03,SE,142,0.0,5.0,79,0.00,,CLR,0.00,VWS V12.08,2013-01-03 21:30:00,
2013-01-03 16:40:00,76.1,69.5,30.03,SW,219,0.0,7.0,80,0.00,,CLR,0.00,VWS V12.08,2013-01-03 21:40:00,
2013-01-03 16:45:00,76.1,69.8,30.03,SSW,199,0.0,5.0,81,0.00,,CLR,0.00,VWS V12.08,2013-01-03 21:45:00,
2013-01-03 16:55:00,75.7,69.8,30.04,SSE,164,0.0,3.0,82,0.00,,CLR,0.00,VWS V12.08,2013-01-03 21:55:00,
2013-01-03 17:00:00,75.6,69.7,30.04,SSE,163,0.0,7.0,82,0.00,,CLR,0.00,VWS V12.08,2013-01-03 22:00:00,
2013-01-03 17:10:00,74.6,69.1,30.04,South,180,0.0,5.0,83,0.00,,CLR,0.00,VWS V12.08,2013-01-03 22:10:00,
2013-01-03 17:15:00,74.4,68.9,30.04,SSE,155,0.0,4.0,83,0.00,,CLR,0.00,VWS V12.08,2013-01-03 22:15:00,
2013-01-03 17:25:00,73.9,68.8,30.04,SSE,165,0.0,5.0,84,0.00,,CLR,0.00,VWS V12.08,2013-01-03 22:25:00,
2013-01-03 17:30:00,73.6,68.5,30.03,SSE,152,3.0,7.0,84,0.00,,CLR,0.00,VWS V12.08,2013-01-03 22:30:00,
2013-01-03 17:40:00,73.2,68.4,30.04,SSE,152,0.0,7.0,85,0.00,,CLR,0.00,VWS V12.08,2013-01-03 22:40:00,
2013-01-03 17:45:00,73.0,68.2,30.04,SSE,153,0.0,5.0,85,0.00,,CLR,0.00,VWS V12.08,2013-01-03 22:45:00,
2013-01-03 17:50:00,72.7,68.3,30.04,SSE,163,0.0,5.0,86,0.00,,CLR,0.00,VWS V12.08,2013-01-03 22:50:00,
2013-01-03 18:00:00,72.4,68.3,30.05,SSE,160,0.0,0.0,87,0.00,,CLR,0.00,VWS V12.08,2013-01-03 23:00:00,
2013-01-03 18:05:00,72.2,68.1,30.06,South,178,0.0,0.0,87,0.00,,CLR,0.00,VWS V12.08,2013-01-03 23:05:00,
2013-01-03 18:10:00,72.1,68.3,30.06,South,178,0.0,0.0,88,0.00,,CLR,0.00,VWS V12.08,2013-01-03 23:10:00,
2013-01-03 18:15:00,72.0,68.3,30.06,South,178,0.0,0.0,88,0.00,,CLR,0.00,VWS V12.08,2013-01-03 23:15:00,
2013-01-03 18:25:00,72.1,68.3,30.07,South,178,0.0,0.0,88,0.00,,CLR,0.00,VWS V12.08,2013-01-03 23:25:00,
2013-01-03 18:30:00,72.1,68.3,30.07,SSE,168,0.0,0.0,88,0.00,,CLR,0.00,VWS V12.08,2013-01-03 23:30:00,
2013-01-03 18:35:00,72.1,68.3,30.07,South,171,0.0,0.0,88,0.00,,CLR,0.00,VWS V12.08,2013-01-03 23:35:00,
2013-01-03 18:40:00,72.0,68.3,30.07,South,190,0.0,0.0,88,0.00,,CLR,0.00,VWS V12.08,2013-01-03 23:40:00,
2013-01-03 18:45:00,72.0,68.6,30.07,SSE,161,0.0,0.0,89,0.00,,CLR,0.00,VWS V12.08,2013-01-03 23:45:00,
2013-01-03 18:50:00,72.0,68.6,30.07,SSE,162,0.0,0.0,89,0.00,,CLR,0.00,VWS V12.08,2013-01-03 23:50:00,
2013-01-03 18:55:00,71.9,68.5,30.07,SSE,161,0.0,0.0,89,0.00,,CLR,0.00,VWS V12.08,2013-01-03 23:55:00,
2013-01-03 19:00:00,71.8,68.4,30.08,South,190,0.0,0.0,89,0.00,,CLR,0.00,VWS V12.08,2013-01-04 00:00:00,
2013-01-03 19:10:00,71.7,68.3,30.07,SSE,163,0.0,0.0,89,0.00,,CLR,0.00,VWS V12.08,2013-01-04 00:10:00,
2013-01-03 19:15:00,71.7,68.3,30.08,SSW,197,0.0,5.0,89,0.00,,CLR,0.00,VWS V12.08,2013-01-04 00:15:00,
2013-01-03 19:20:00,71.7,68.3,30.08,SSE,167,0.0,5.0,89,0.00,,CLR,0.00,VWS V12.08,2013-01-04 00:20:00,
2013-01-03 19:25:00,71.7,68.3,30.08,SSE,157,0.0,0.0,89,0.00,,CLR,0.00,VWS V12.08,2013-01-04 00:25:00,
2013-01-03 19:30:00,71.6,68.5,30.08,South,182,0.0,4.0,90,0.00,,CLR,0.00,VWS V12.08,2013-01-04 00:30:00,
2013-01-03 19:35:00,71.6,68.5,30.08,South,191,0.0,1.0,90,0.00,,OVC085,0.00,VWS V12.08,2013-01-04 00:35:00,
2013-01-03 19:40:00,71.5,68.4,30.08,South,169,0.0,0.0,90,0.00,,OVC085,0.00,VWS V12.08,2013-01-04 00:40:00,
2013-01-03 19:45:00,71.4,68.3,30.08,SSE,154,0.0,1.0,90,0.00,,OVC085,0.00,VWS V12.08,2013-01-04 00:45:00,
2013-01-03 19:50:00,71.4,68.3,30.08,South,172,0.0,0.0,90,0.00,,OVC085,0.00,VWS V12.08,2013-01-04 00:50:00,
2013-01-03 20:00:00,71.2,68.4,30.08,South,176,0.0,0.0,91,0.00,,OVC085,0.00,VWS V12.08,2013-01-04 01:00:00,
2013-01-03 20:10:00,71.0,68.2,30.09,SSE,159,0.0,0.0,91,0.00,,OVC085,0.00,VWS V12.08,2013-01-04 01:10:00,
2013-01-03 20:15:00,70.9,68.5,30.09,SSE,163,0.0,0.0,92,0.00,,OVC085,0.00,VWS V12.08,2013-01-04 01:15:00,
2013-01-03 20:20:00,70.9,68.5,30.09,SSE,161,0.0,0.0,92,0.00,,OVC085,0.00,VWS V12.08,2013-01-04 01:20:00,
2013-01-03 20:25:00,70.9,68.5,30.09,South,169,0.0,0.0,92,0.00,,OVC085,0.00,VWS V12.08,2013-01-04 01:25:00,
2013-01-03 20:30:00,70.9,68.5,30.09,South,179,0.0,0.0,92,0.00,,OVC085,0.00,VWS V12.08,2013-01-04 01:30:00,
2013-01-03 20:35:00,70.9,68.5,30.09,South,178,0.0,0.0,92,0.00,,OVC085,0.00,VWS V12.08,2013-01-04 01:35:00,
2013-01-03 20:45:00,71.0,68.6,30.09,SSW,195,0.0,2.0,92,0.00,,OVC085,0.00,VWS V12.08,2013-01-04 01:45:00,
2013-01-03 20:50:00,71.0,68.6,30.08,SSE,159,0.0,4.0,92,0.00,,BKN095,0.00,VWS V12.08,2013-01-04 01:50:00,
2013-01-03 20:55:00,70.9,68.5,30.09,SSE,161,0.0,3.0,92,0.00,,BKN095,0.00,VWS V12.08,2013-01-04 01:55:00,
2013-01-03 21:00:00,70.8,68.4,30.09,SSE,161,0.0,0.0,92,0.00,,BKN095,0.00,VWS V12.08,2013-01-04 02:00:00,
2013-01-03 21:05:00,70.7,68.3,30.09,SSE,161,0.0,0.0,92,0.00,,BKN095,0.00,VWS V12.08,2013-01-04 02:05:00,
2013-01-03 21:15:00,70.6,68.2,30.09,South,171,0.0,0.0,92,0.00,,BKN095,0.00,VWS V12.08,2013-01-04 02:15:00,
2013-01-03 21:20:00,70.5,68.1,30.09,South,177,0.0,0.0,92,0.00,,BKN095,0.00,VWS V12.08,2013-01-04 02:20:00,
2013-01-03 21:25:00,70.5,68.1,30.09,SSE,167,0.0,2.0,92,0.00,,BKN095,0.00,VWS V12.08,2013-01-04 02:25:00,
2013-01-03 21:35:00,70.5,68.4,30.10,South,171,0.0,0.0,93,0.00,,BKN095,0.00,VWS V12.08,2013-01-04 02:35:00,
2013-01-03 21:45:00,70.4,68.3,30.10,SSW,194,0.0,0.0,93,0.00,,BKN095,0.00,VWS V12.08,2013-01-04 02:45:00,
2013-01-03 21:50:00,70.4,68.3,30.10,SSW,193,0.0,0.0,93,0.00,,CLR,0.00,VWS V12.08,2013-01-04 02:50:00,
2013-01-03 21:55:00,70.4,68.3,30.10,SSE,168,0.0,0.0,93,0.00,,CLR,0.00,VWS V12.08,2013-01-04 02:55:00,
2013-01-03 22:00:00,70.4,68.3,30.10,SSE,167,0.0,0.0,93,0.00,,CLR,0.00,VWS V12.08,2013-01-04 03:00:00,
2013-01-03 22:05:00,70.4,68.6,30.10,SSE,167,0.0,0.0,94,0.00,,CLR,0.00,VWS V12.08,2013-01-04 03:05:00,
2013-01-03 22:15:00,70.6,68.8,30.10,SSE,167,0.0,0.0,94,0.00,,CLR,0.00,VWS V12.08,2013-01-04 03:15:00,
2013-01-03 22:25:00,70.6,68.8,30.10,SSE,167,0.0,0.0,94,0.00,,CLR,0.00,VWS V12.08,2013-01-04 03:25:00,
2013-01-03 22:30:00,70.7,68.9,30.11,South,178,0.0,1.0,94,0.00,,CLR,0.00,VWS V12.08,2013-01-04 03:30:00,
2013-01-03 22:35:00,70.7,68.9,30.11,SSE,160,0.0,0.0,94,0.00,,CLR,0.00,VWS V12.08,2013-01-04 03:35:00,
2013-01-03 22:45:00,70.8,69.0,30.11,SSE,160,0.0,0.0,94,0.00,,CLR,0.00,VWS V12.08,2013-01-04 03:45:00,
2013-01-03 22:50:00,70.9,69.1,30.11,South,179,0.0,0.0,94,0.00,,CLR,0.00,VWS V12.08,2013-01-04 03:50:00,
2013-01-03 23:00:00,71.0,69.2,30.11,South,171,0.0,0.0,94,0.00,,CLR,0.00,VWS V12.08,2013-01-04 04:00:00,
2013-01-03 23:05:00,71.0,69.2,30.11,South,172,0.0,0.0,94,0.00,,CLR,0.00,VWS V12.08,2013-01-04 04:05:00,
2013-01-03 23:15:00,70.9,69.1,30.11,South,172,0.0,0.0,94,0.00,,CLR,0.00,VWS V12.08,2013-01-04 04:15:00,
2013-01-03 23:25:00,70.9,69.1,30.10,SSE,153,0.0,0.0,94,0.00,,CLR,0.00,VWS V12.08,2013-01-04 04:25:00,
2013-01-03 23:30:00,70.9,69.1,30.10,SSE,158,0.0,3.0,94,0.00,,CLR,0.00,VWS V12.08,2013-01-04 04:30:00,
2013-01-03 23:35:00,70.9,69.1,30.10,SSE,167,0.0,3.0,94,0.00,,CLR,0.00,VWS V12.08,2013-01-04 04:35:00,
2013-01-03 23:45:00,70.8,69.0,30.10,South,173,0.0,0.0,94,0.00,,CLR,0.00,VWS V12.08,2013-01-04 04:45:00,
2013-01-03 23:50:00,70.7,68.9,30.10,SSE,163,0.0,0.0,94,0.00,,SCT100,0.00,VWS V12.08,2013-01-04 04:50:00,